Tracking 19908 objects as of 19-Oct-2019
HD Live streaming from Space Station
objects crossing your sky now

FLOCK 3S 1

Track FLOCK 3S 1 now!
10-day predictions
FLOCK 3S 1 is classified as:


NORAD ID: 43769
Int'l Code: 2018-099M
Perigee: 581.2 km
Apogee: 599.0 km
Inclination: 97.7 °
Period: 96.3 minutes
Semi major axis: 6961 km
RCS: Unknown
Launch date: December 3, 2018
Source: United States (US)
Launch site: AIR FORCE WESTERN TEST RANGE (AFWTR)
aabbcc
Your satellite tracking list
Your tracking list is empty




NASA's NSSDC Master Catalog

Two Line Element Set (TLE):
1 43769U 18099M   19291.87209068 +.00000549 +00000-0 +55665-4 0  9997
2 43769 097.7304 001.9165 0012757 285.4824 074.4987 14.94811657047677
Source of the keplerian elements: AFSPC